TimeMDT,TemperatureF,Dew PointF,Humidity,Sea Level PressureIn,VisibilityMPH,Wind Direction,Wind SpeedMPH,Gust SpeedMPH,PrecipitationIn,Events,Conditions,WindDirDegrees,DateUTC
12:53 AM,46.0,42.1,86,30.19,10.0,North,6.9,-,0.00,,Light Drizzle,350,2013-05-04 06:53:00
1:53 AM,46.0,41.0,83,30.19,10.0,North,8.1,-,0.00,,Overcast,350,2013-05-04 07:53:00
2:53 AM,46.0,41.0,83,30.19,10.0,NNW,6.9,-,N/A,,Overcast,340,2013-05-04 08:53:00
3:53 AM,45.0,41.0,86,30.19,10.0,NNW,9.2,-,0.00,,Light Drizzle,340,2013-05-04 09:53:00
4:53 AM,45.0,41.0,86,30.20,10.0,North,6.9,-,0.00,Rain,Light Rain,350,2013-05-04 10:53:00
5:53 AM,44.1,42.1,93,30.22,10.0,North,3.5,-,0.00,,Light Drizzle,350,2013-05-04 11:53:00
6:15 AM,44.1,41.0,89,30.23,10.0,NNW,4.6,-,0.00,,Light Drizzle,340,2013-05-04 12:15:00
6:53 AM,44.1,42.1,93,30.23,10.0,NNW,4.6,-,0.00,,Overcast,340,2013-05-04 12:53:00
7:53 AM,45.0,42.1,90,30.25,10.0,NNW,4.6,-,0.00,,Light Drizzle,340,2013-05-04 13:53:00
8:45 AM,46.0,43.0,89,30.25,10.0,North,5.8,-,0.00,,Overcast,360,2013-05-04 14:45:00
8:53 AM,46.0,43.0,89,30.26,10.0,North,6.9,-,0.00,,Overcast,10,2013-05-04 14:53:00
9:18 AM,46.9,43.0,86,30.25,10.0,NNE,5.8,-,N/A,,Overcast,20,2013-05-04 15:18:00
9:44 AM,46.9,43.0,86,30.25,10.0,NNE,3.5,-,N/A,,Overcast,30,2013-05-04 15:44:00
9:53 AM,46.9,43.0,86,30.27,10.0,NNW,4.6,-,N/A,,Overcast,330,2013-05-04 15:53:00
10:53 AM,50.0,43.0,77,30.28,10.0,Variable,3.5,-,N/A,,Mostly Cloudy,0,2013-05-04 16:53:00
11:53 AM,52.0,42.1,69,30.27,10.0,NNE,9.2,-,N/A,,Overcast,20,2013-05-04 17:53:00
12:53 PM,55.9,41.0,57,30.25,10.0,Variable,4.6,-,N/A,,Mostly Cloudy,0,2013-05-04 18:53:00
1:53 PM,54.0,41.0,62,30.24,10.0,West,9.2,-,N/A,,Mostly Cloudy,270,2013-05-04 19:53:00
2:53 PM,57.9,37.0,46,30.21,10.0,North,13.8,20.7,N/A,,Mostly Cloudy,360,2013-05-04 20:53:00
3:53 PM,57.0,36.0,45,30.20,10.0,North,6.9,-,N/A,,Mostly Cloudy,10,2013-05-04 21:53:00
4:53 PM,57.0,39.0,51,30.22,10.0,East,16.1,-,N/A,,Mostly Cloudy,80,2013-05-04 22:53:00
5:53 PM,55.9,37.0,49,30.22,10.0,East,11.5,-,N/A,,Scattered Clouds,80,2013-05-04 23:53:00
6:53 PM,55.9,35.1,45,30.23,10.0,East,13.8,-,N/A,,Partly Cloudy,80,2013-05-05 00:53:00
7:53 PM,53.1,35.1,50,30.24,10.0,East,11.5,-,N/A,,Partly Cloudy,100,2013-05-05 01:53:00
8:53 PM,51.1,34.0,52,30.24,10.0,ENE,3.5,-,N/A,,Partly Cloudy,70,2013-05-05 02:53:00
9:53 PM,50.0,34.0,54,30.25,10.0,NNE,3.5,-,N/A,,Scattered Clouds,30,2013-05-05 03:53:00
10:53 PM,46.9,33.1,59,30.24,10.0,North,4.6,-,N/A,,Partly Cloudy,350,2013-05-05 04:53:00
11:53 PM,44.1,33.1,65,30.25,10.0,North,5.8,-,N/A,,Partly Cloudy,350,2013-05-05 05:53:00